FLOCK 4BE 11

导读 | 星芒AI

FLOCK 4BE 11 是由 Planet Labs 运营的 Flock 4B 系列地球观测卫星之一,属于 Dove 卫星平台。该卫星主要用于高分辨率光学成像,支持全球范围的每日重访能力,广泛应用于环境监测、农业、灾害评估等领域。Flock 4B 系列卫星采用小型化设计,具备快速部署和成本效益高的特点,是商业遥感领域的重要组成部分。

基本信息
目录编号:
60501
目录名称:
FLOCK 4BE 11
国际标识:
2024-149AK
轨道中心:
EARTH
卫星名称:
FLOCK 4BE 11
卫星全名:
FLOCK 4BE 11
卫星状态:
在轨 (已飞行432 天)
发射日期:
2024-08-16 UTC
国别 :
美国 (US)
星等 :
--
轨道信息
数据来源 国际轨道数据
星历时间: 2025-10-22T11:34:50+0800
11小时前
查看轨道信息
半长轴: 6846.035km
偏心率: 0.0005313
轨道倾角: 97.394°
近地点辐角 57.477°
升交点赤经 12.956°
平近点角 302.698°
近地点: 464.262km
远地点: 471.538km
周期: 93.955分钟
每日圈数: 15.32654
详细信息
使用方式:
暂无
2D轨道图
3D轨道图
轨道高度分析图
轨道倾角分析图
轨道综合分析图
查看轨道综合分析图